PROFILE

 METAR AND TAF INFORMATION
ADDS - METARS form results

(1213 UTC 26 March 2019)
http://aviationweather.gov/metar/data/
 
EGLL 261150Z AUTO 36006KT 300V050 9999 FEW039 12/03 Q1034 NOSIG
EGLL 261120Z AUTO 36006KT 280V060 9999 NCD 11/03 Q1034 NOSIG
TAF EGLL 261104Z 2612/2718 33008KT 9999 SCT040 PROB30 TEMPO 2703/2708 8000 

 AIRPORT MAP

 RUNWAY INFORMATION
Runway 09L Runway length 12799 ft Runway width 164 ft
Runway elevation 79 ft Runway displaced threshold 1007 ft Runway heading 90
Runway 27R Runway length 12799 ft Runway width 164 ft
Runway elevation 78 ft Runway displaced threshold 0 ft Runway heading 270
Runway 09R Runway length 12001 ft Runway width 148 ft
Runway elevation 75 ft Runway displaced threshold 1013 ft Runway heading 90
Runway 27L Runway length 12001 ft Runway width 148 ft
Runway elevation 77 ft Runway displaced threshold 0 ft Runway heading 270

 AIRPORT FREQUENCIES
Type APP Name APP Frequency 119.725 MHZ
Type ATIS Name ATIS Frequency 128.075 MHZ
Type CLD Name CLNC DEL Frequency 121.975 MHZ
Type GND Name GND Frequency 121.7 MHZ
Type TWR Name TWR Frequency 118.475 MHZ

 AIRPORT NEAR NAVIGATION AIDS
Type VOR-DME Name London Frequency 113600 KHZ